User: anonymous   Login
Location: Fort Wayne
(41.1310°N, 85.1290°W)
Time: 11:11:56
(UTC-05:00)
Language:

Iridium 37 - Orbit

View from above orbital plane
View from above orbital plane
View from above satellite
View from above satellite

Ground track
Ground track

The orbit data is extracted from the following two-line orbital elements,

1 24968U 97056D   14329.49074845  .00000035  00000-0  53284-5 0   543
2 24968 086.3958 349.5636 0002141 107.7109 252.4320 14.34215685898562
Epoch (UTC): 25 November 2014 11:46:40
Eccentricity: 0.0002141
inclination: 86.3958°
perigee height: 776 km
apogee height: 779 km
right ascension of ascending node: 349.5636°
argument of perigee: 107.7109°
revolutions per day: 14.34215685
mean anomaly at epoch: 252.4320°
orbit number at epoch: 89856

The dashed part of the orbit path shows where the satellite is in the earth's shadow,  

DLR